Location: Betzi
(47.2343°N, 9.5260°E)
Time: 21:58:46
(UTC+00:00)

Cosmos 1140 Rocket - Pass Details

Date: 27 May 2022
Orbit: 743 x 767 km, 74.1° (Epoch: 29 June)

Event Time Altitude Azimuth Distance (km) Brightness Sun altitude
Rises 02:15:06 0° 337° (NNW) 3,248 7.1 -10.9°
Reaches altitude 10° 02:17:29 10° 337° (NNW) 2,318 6.3 -10.6°
Maximum altitude 02:22:45 85° 250° (WSW) 776 3.5 -10.0°
Drops below altitude 10° 02:27:59 10° 162° (SSE) 2,296 5.7 -9.4°
Sets 02:30:20 0° 162° (SSE) 3,216 6.5 -9.1°
